Weather History for Mammoth, CA

Change the Weather History Date:

Tuesday, July 16, 2013

  Actual Average Record
Temperature  
Mean Temperature 63 °F -  
Max Temperature 82 °F 76 °F 89 °F (1998)
Min Temperature 44 °F 63 °F 33 °F (2011)
Degree Days  
Heating Degree Days 2    
Growing Degree Days 13 (Base 50)    
Moisture  
Dew Point 29 °F    
Average Humidity 28    
Maximum Humidity 61    
Minimum Humidity 12    
Precipitation  
Precipitation 0.00 in - - ()
Sea Level Pressure  
Sea Level Pressure 30.16 in    
Wind  
Wind Speed 7 mph (WNW)    
Max Wind Speed 29 mph    
Max Gust Speed 36 mph    
Visibility 10 miles    
Events      
Averages and records for this station are not official NWS values.
T = Trace of Precipitation, MM = Missing Value Source: NWS Daily Summary

Daily Weather History Graph

Daily Weather History Graph

Search for Another Location

Airport:

Trip Planner

Search our weather history database for the weather conditions in past years. The results will help you decide how hot, cold, wet, or windy it might be!

Date:

Astronomy

Jul. 16, 2013 Rise Set
Actual Time 5:46 AM PDT 8:15 PM PDT
Civil Twilight 5:16 AM PDT 8:45 PM PDT
Nautical Twilight 4:39 AM PDT 9:23 PM PDT
Astronomical Twilight 3:57 AM PDT 10:04 PM PDT
Moon 2:05 PM PDT (7/16) 12:15 AM PDT (7/16)
Length of Visible Light 15h 29m
Length of Day
14h 28m
First Quarter, 57% of the Moon is Illuminated
Jul 16
First Quarter
Jul 22
Full
Jul 29
Last Quarter
Aug 6
New
Aug 14
First Quarter

Hourly Weather History & Observations

Time (PDT) Temp. Windchill Dew Point Humidity Pressure Visibility Wind Dir Wind Speed Gust Speed Precip Events Conditions
12:55 AM 51.8 °F - 32.0 °F 47% 30.14 in 10.0 mi Calm Calm - N/A   Clear
1:55 AM 46.4 °F 45.2 °F 28.4 °F 50% 30.14 in 10.0 mi North 3.5 mph - N/A   Clear
4:35 AM 48.2 °F - 33.8 °F 58% 30.13 in 10.0 mi Calm Calm - N/A   Clear
4:55 AM 46.4 °F - 30.2 °F 53% 30.13 in 10.0 mi Calm Calm - N/A   Clear
5:15 AM 44.6 °F - 32.0 °F 61% 30.13 in 10.0 mi Calm Calm - N/A   Clear
5:55 AM 46.4 °F - 32.0 °F 57% 30.14 in 10.0 mi Calm Calm - N/A   Clear
6:15 AM 44.6 °F - 30.2 °F 57% 30.14 in 10.0 mi Calm Calm - N/A   Clear
6:35 AM 46.4 °F - 32.0 °F 57% 30.15 in 10.0 mi Calm Calm - N/A   Clear
6:55 AM 44.6 °F - 32.0 °F 61% 30.15 in 10.0 mi Calm Calm - N/A   Clear
7:15 AM 51.8 °F - 33.8 °F 50% 30.15 in 10.0 mi Calm Calm - N/A   Clear
7:55 AM 60.8 °F - 35.6 °F 39% 30.16 in 10.0 mi Calm Calm - N/A   Clear
8:15 AM 62.6 °F - 35.6 °F 37% 30.16 in 10.0 mi Calm Calm - N/A   Clear
10:15 AM 73.4 °F - 30.2 °F 20% 30.16 in 10.0 mi Calm Calm - N/A   Clear
11:35 AM 78.8 °F - 26.6 °F 15% 30.16 in 10.0 mi East 8.1 mph 17.3 mph N/A   Clear
11:55 AM 78.8 °F - 26.6 °F 15% 30.16 in 10.0 mi ESE 9.2 mph 19.6 mph N/A   Clear
12:15 PM 80.6 °F - 24.8 °F 13% 30.16 in 10.0 mi ESE 11.5 mph 18.4 mph N/A   Clear
12:35 PM 80.6 °F - 23.0 °F 12% 30.16 in 10.0 mi East 11.5 mph 18.4 mph N/A   Clear
1:55 PM 82.4 °F - 26.6 °F 13% 30.16 in 10.0 mi West 20.7 mph 27.6 mph N/A   Clear
2:15 PM 80.6 °F - 26.6 °F 14% 30.16 in 10.0 mi WNW 18.4 mph 32.2 mph N/A   Clear
2:35 PM 82.4 °F - 26.6 °F 13% 30.16 in 10.0 mi WNW 20.7 mph 29.9 mph N/A   Clear
2:55 PM 80.6 °F - 26.6 °F 14% 30.17 in 10.0 mi WNW 26.5 mph 32.2 mph N/A   Clear
3:15 PM 82.4 °F - 26.6 °F 13% 30.16 in 10.0 mi WNW 18.4 mph 28.8 mph N/A   Clear
3:55 PM 80.6 °F - 24.8 °F 13% 30.16 in 10.0 mi WNW 23.0 mph 34.5 mph N/A   Clear
4:15 PM 80.6 °F - 24.8 °F 13% 30.16 in 10.0 mi WNW 27.6 mph 35.7 mph N/A   Clear
4:35 PM 80.6 °F - 26.6 °F 14% 30.16 in 10.0 mi West 28.8 mph 35.7 mph N/A   Clear
4:55 PM 78.8 °F - 26.6 °F 15% 30.17 in 10.0 mi West 27.6 mph 34.5 mph N/A   Clear
5:15 PM 78.8 °F - 26.6 °F 15% 30.16 in 10.0 mi West 25.3 mph 34.5 mph N/A   Clear
5:35 PM 77.0 °F - 26.6 °F 16% 30.16 in 10.0 mi West 26.5 mph 35.7 mph N/A   Clear
5:55 PM 77.0 °F - 28.4 °F 17% 30.16 in 10.0 mi West 23.0 mph 32.2 mph N/A   Clear
6:15 PM 77.0 °F - 26.6 °F 16% 30.16 in 10.0 mi West 21.9 mph 28.8 mph N/A   Clear
6:35 PM 78.8 °F - 26.6 °F 15% 30.16 in 10.0 mi SW 13.8 mph 25.3 mph N/A   Clear
6:55 PM 78.8 °F - 26.6 °F 15% 30.16 in 10.0 mi SW 11.5 mph 17.3 mph N/A   Clear
7:35 PM 71.6 °F - 28.4 °F 20% 30.18 in 10.0 mi WNW 8.1 mph 17.3 mph N/A   Clear